Weather in Dzheyrakh

Russia / Republic of Ingushetia     42°49′27″N   44°40′31″E
temp.,
°C
wind,
m/s
gust,
m/s
humid.,
%
clouds,
%
prec.,
mm/h
press.,
hPa
HPBL,
m
8 march, mon
mon800:00−9ssw68773 0.0 1022145
03:00−10ssw56843 0.1 1022130
06:00−12s468748 0.1 1021130
09:00−8s468772 0.6 1019312
12:00−6s358864 0.3 1017452
15:00−7sw149174 0.9 1016448
18:00−10ssw1395100 0.7 101877
21:00−12ssw229396 1.2 101926
9 march, tue
tue900:00−13ssw228796 0.3 101926
03:00−15ssw338270 0.3 101829
06:00−16ssw337731 0.0 101930
09:00−10ssw237217 0.0 1018264
12:00−7sw127919 0.1 1016736
15:00−7wsw137648 0.6 1016878
18:00−13sw229076 0.5 101821
21:00−15ssw337958 0.6 102129
10 march, wed
wed1000:00−16ssw337236 0.1 102228
03:00−16ssw336836 0.3 102334
06:00−17ssw336751 0.2 102526
09:00−11ssw127344 0.2 1024337
12:00−8sw138128 0.3 1022677
15:00−8ssw147947 0.8 1021721
18:00−13ssw3494100 0.4 102290
21:00−13ssw468997 0.5 1023229
11 march, thu
thu1100:00−13ssw468893 0.2 1021182
03:00−12ssw578896 0.4 1020220
06:00−13ssw3591100 0.3 1020152
09:00−10ssw2591100 0.4 1019343
12:00−8ssw2688100 0.7 1017552
15:00−9ssw0591100 1.9 1016430
18:00−12nnw0397100 1.1 1017170
21:00−13s2595100 2.6 1018211
12 march, fri
fri1200:00−14ssw269699 0.7 1018163
03:00−14ssw1497100 1.8 1018214
06:00−15s1497100 1.4 1020211
09:00−14n0493100 2.5 1022405
12:00−16nne3297100 1.4 1022308
15:00−17n3397100 3.0 1023332
18:00−18nnw1198100 0.9 102768
21:00−19wnw1194100 0.9 103020